Location: �perlecques
(50.8057°N, 2.1521°E)
Time: 11:25:58
(UTC+00:00)

Vanguard 1 Rocket - Pass Details

Date: 01 August 2021
Orbit: 650 x 4226 km, 34.3° (Epoch: 16 September)

Event Time Altitude Azimuth Distance (km) Brightness Sun altitude
Rises 09:11:19 0° 221° (SW) 8,181 12.2 43.5°
Reaches altitude 10° 09:18:34 10° 212° (SSW) 6,754 11.9 44.5°
Maximum altitude 09:34:03 29° 163° (SSE) 4,037 11.8 46.5°
Drops below altitude 10° 09:43:49 10° 110° (ESE) 4,217 11.7 47.7°
Sets 09:47:02 0° 98° (E) 4,789 11.6 48.1°
